Regional Weather Roundup
Issued by NWS Cleveland, OH

Home | Current Version | Previous Version | Graphics & Text | Print | Product List | Glossary On
Versions: 1 2 3 4 5 6 7 8 9 10 11 12 13 14 15 16 17 18 19 20 21 22 23 24 25 26 27 28 29 30 31 32 33 34 35 36 37 38 39 40 41 42 43 44 45 46 47 48 49 50
977
ASUS41 KCLE 300202
RWRCLE
OHIO REGIONAL WEATHER ROUNDUP
NATIONAL WEATHER SERVICE CLEVELAND, OH
1000 PM EDT FRI JUL 29 2016

NOTE: "FAIR" INDICATES FEW OR NO CLOUDS BELOW 12,000 FEET WITH NO
SIGNIFICANT WEATHER AND/OR OBSTRUCTIONS TO VISIBILITY.

OHZ001>008-015>018-024>027-034-035-043-044-300300-
   NORTHWEST OHIO

CITY           SKY/WX    TMP DP  RH WIND       PRES   REMARKS
DEFIANCE       RAIN      73  69  87 E3        29.96S FOG
FINDLAY        LGT RAIN  74  69  85 E6        29.94S
TOLEDO EXPRESS LGT RAIN  72  67  84 SE3       29.96R
TOLEDO EXEC    CLOUDY    75  70  84 NE3       29.96S
LIMA           CLOUDY    71  70  96 NW5       29.96R
$$

OHZ009>014-019>023-028>033-038-089-300300-
   NORTHEAST OHIO

CITY           SKY/WX    TMP DP  RH WIND       PRES   REMARKS
CLE-HOPKINS    CLOUDY    78  66  66 E7        29.97S
CLE-LAKEFRONT  CLOUDY    78  67  68 E9        29.94S
CUY CO. ARPT   CLOUDY    77  72  83 E7        29.96
LORAIN-ELYRIA  CLOUDY    71  67  87 CALM      29.97R
ASHTABULA      CLOUDY    69  69 100 E5        29.98S
AKRON-CANTON   CLOUDY    70  66  87 E6        29.97S
WOOSTER        LGT RAIN  71  67  87 CALM      29.97S
MANSFIELD      CLOUDY    71  65  81 CALM      29.98R
YOUNGSTOWN     CLOUDY    71  67  87 NE7       29.97R
$$

OHZ042-051>053-060>062-070>072-077>081-300300-
  SOUTHWEST OHIO

CITY           SKY/WX    TMP DP  RH WIND       PRES   REMARKS
CINC-COVINGTON CLOUDY    72  69  90 N5        29.94R THUNDER
CINC-LUNKEN    HVY RAIN  70  32  24 E7        29.94S
HAMILTON       CLOUDY    74  70  87 CALM      29.95R
DAYTON         MOCLDY    72  70  93 SE6       29.94R
WRIGHT-PAT AFB NOT AVBL
DAYTON GENERAL LGT RAIN  73  69  87 CALM      29.93R
WILMINGTON     LGT RAIN  69  68  96 E3        29.94S
$$

OHZ036-037-039>041-045>050-054>059-063>069-073>076-082>088-300300-
  CENTRAL AND SOUTHEAST OHIO

CITY           SKY/WX    TMP DP  RH WIND       PRES   REMARKS
COLUMBUS       CLOUDY    77  68  73 E3        29.93R
OSU AIRPORT    MOCLDY    75  66  73 CALM      29.94R
BOLTON FIELD   CLOUDY    73  71  96 CALM      29.95R
RICKENBACK AFB CLOUDY    73  71  91 CALM      29.93R
NEWARK         MOCLDY    73  67  81 NE5       29.95R
MARION         CLOUDY    73  66  78 E5        29.95R
LANCASTER      MOCLDY    75  70  84 SE5       29.95R
ZANESVILLE     MOCLDY    78  70  76 CALM      29.95R
NEW PHILLY     LGT RAIN  73  69  87 S5        29.98R FOG
$$




USA.gov is the U.S. government's official web portal to all federal, state and local government web resources and services.